GFSMW_700_temp_276.txt.gz
Temp
3 3 3 3 3 4 4 5 6 6 6 6 5 6 6 7 7 7 5 6 6 6 6 6 7 7 7 7 7 7 7 7 7 7 7 7 7 7 7 7 7 7 7
2 2 3 3 3 3 3 4 4 5 5 5 5 5 5 6 6 6 6 6 6 5 5 5 5 6 6 7 7 7 7 7 7 7 7 7 7 7 7 7 7 7 7
2 2 2 2 2 2 2 2 2 3 3 3 2 2 3 5 5 5 5 6 6 5 5 5 5 5 6 6 6 6 6 7 7 7 6 7 7 8 7 7 7 7 7
2 1 1 2 2 1 1 0 0 1 1 1 1 1 1 2 4 5 5 4 5 5 5 4 5 6 5 5 5 6 6 5 6 7 7 6 6 7 8 7 7 7 7
0 0 1 2 2 1 1 -0 -1 -1 -1 0 0 0 0 0 1 3 4 5 3 4 4 5 4 5 5 5 5 4 5 6 6 6 6 6 5 5 6 8 8 8 8
-1 -1 -1 -1 -0 -0 -0 -1 -1 -2 -1 -1 -1 -1 -0 -0 0 1 2 3 3 3 3 4 4 4 4 5 5 4 5 4 4 3 4 5 5 5 4 5 7 8 9
-3 -3 -3 -3 -3 -2 -2 -1 -2 -2 -3 -2 -2 -2 -3 -2 -1 -0 0 1 2 2 2 3 3 3 3 3 4 4 3 5 4 5 4 3 4 5 5 4 4 7 8
-3 -3 -3 -3 -3 -3 -3 -3 -2 -2 -3 -3 -3 -3 -3 -4 -3 -3 -1 -0 0 0 1 2 2 2 3 2 3 2 2 3 2 3 3 4 4 4 4 3 3 3 6
-3 -3 -3 -3 -3 -3 -3 -3 -3 -3 -3 -3 -3 -3 -4 -4 -4 -4 -3 -2 -1 -0 1 1 1 2 2 1 1 0 0 1 1 1 1 2 2 3 2 2 3 3 3
-3 -3 -3 -3 -3 -3 -3 -3 -3 -3 -3 -3 -3 -3 -3 -4 -4 -4 -4 -4 -3 -2 -0 1 1 1 1 1 2 3 1 0 1 -0 1 1 0 1 2 2 2 2 2
-3 -3 -3 -3 -3 -3 -2 -2 -3 -3 -4 -4 -4 -4 -4 -4 -4 -4 -4 -4 -3 -3 -2 -1 1 1 2 1 2 2 1 1 2 2 3 3 2 2 2 2 1 1 2
-2 -2 -2 -2 -2 -2 -2 -2 -2 -3 -3 -3 -4 -4 -4 -4 -4 -4 -4 -4 -4 -3 -3 -2 -1 -1 -0 -0 -1 -1 -0 0 -0 0 2 1 1 1 1 2 1 1 1
-2 -2 -2 -2 -2 -2 -2 -2 -2 -3 -3 -3 -3 -3 -4 -4 -4 -4 -4 -4 -4 -4 -4 -3 -3 -2 -2 -2 -2 -2 -2 -2 -1 -2 -2 -1 -1 -1 -0 -0 -0 1 1
-2 -2 -2 -2 -2 -2 -2 -2 -2 -3 -3 -3 -3 -3 -3 -3 -4 -4 -4 -4 -4 -3 -3 -3 -3 -3 -3 -4 -4 -4 -4 -4 -3 -3 -3 -3 -3 -2 -1 -1 -1 -1 -1
-2 -2 -2 -2 -3 -3 -3 -3 -3 -3 -3 -3 -3 -3 -3 -3 -4 -4 -4 -4 -4 -4 -4 -4 -4 -4 -5 -5 -5 -6 -6 -5 -5 -5 -5 -5 -4 -4 -4 -3 -2 -2 -1
-3 -3 -3 -3 -3 -3 -3 -4 -4 -4 -4 -4 -4 -4 -4 -4 -4 -4 -4 -4 -4 -4 -4 -4 -5 -5 -6 -6 -7 -7 -7 -6 -6 -5 -5 -5 -5 -5 -5 -5 -4 -4 -3
-3 -3 -3 -3 -4 -4 -4 -4 -4 -4 -4 -4 -4 -4 -4 -4 -4 -4 -4 -4 -4 -4 -4 -5 -5 -6 -6 -7 -7 -7 -7 -7 -7 -6 -6 -5 -6 -6 -5 -5 -5 -5 -5
-4 -4 -4 -4 -4 -4 -4 -4 -4 -4 -4 -4 -4 -4 -4 -4 -4 -4 -4 -4 -5 -5 -5 -6 -6 -7 -7 -7 -7 -8 -8 -8 -8 -7 -6 -6 -6 -6 -6 -5 -5 -6 -6
-4 -4 -4 -4 -4 -4 -4 -5 -5 -5 -5 -4 -4 -4 -4 -4 -4 -4 -4 -4 -5 -5 -6 -7 -7 -7 -8 -8 -8 -8 -8 -8 -8 -8 -8 -7 -6 -6 -6 -6 -5 -5 -6
-4 -4 -4 -4 -4 -4 -5 -5 -5 -5 -5 -5 -4 -4 -5 -5 -5 -5 -5 -5 -5 -5 -6 -7 -7 -8 -8 -9 -9 -9 -8 -8 -8 -8 -8 -8 -8 -7 -7 -6 -6 -6 -5
-3 -3 -4 -4 -4 -5 -5 -5 -5 -5 -5 -5 -5 -5 -5 -5 -5 -5 -5 -5 -5 -6 -6 -7 -8 -8 -9 -9 -9 -9 -10 -9 -9 -8 -8 -8 -8 -8 -7 -7 -6 -5 -5
-3 -3 -4 -4 -5 -5 -5 -5 -5 -5 -5 -5 -5 -5 -5 -5 -5 -5 -6 -6 -6 -6 -7 -8 -8 -8 -9 -9 -9 -9 -10 -10 -10 -9 -8 -8 -8 -8 -8 -7 -7 -6 -5
-3 -3 -4 -4 -4 -5 -5 -5 -5 -6 -6 -6 -5 -5 -5 -5 -6 -6 -6 -6 -6 -7 -8 -8 -8 -8 -9 -9 -9 -9 -10 -10 -10 -9 -9 -9 -9 -8 -8 -8 -8 -8 -8
-4 -4 -4 -4 -5 -5 -5 -5 -6 -6 -6 -6 -6 -6 -6 -6 -6 -6 -6 -6 -7 -7 -8 -8 -9 -9 -9 -10 -10 -10 -10 -10 -10 -9 -9 -9 -9 -9 -9 -9 -9 -9 -8
-4 -4 -4 -4 -5 -5 -5 -6 -6 -6 -6 -6 -6 -6 -6 -6 -6 -6 -7 -7 -8 -8 -8 -9 -9 -9 -9 -10 -10 -10 -10 -10 -10 -10 -10 -10 -10 -10 -10 -9 -9 -9 -9
-4 -4 -4 -5 -5 -5 -6 -6 -6 -7 -7 -6 -6 -6 -6 -6 -6 -6 -7 -7 -8 -8 -9 -10 -10 -10 -10 -10 -11 -11 -11 -11 -11 -11 -11 -11 -11 -10 -10 -10 -9 -10 -10

GFSMW_700_temp_279.txt.gz
Temp
3 3 3 3 4 4 4 5 5 5 6 6 6 5 5 6 6 6 7 6 6 6 5 6 6 6 6 7 6 6 6 6 6 6 7 7 7 7 7 7 7 7 7
2 2 2 2 2 3 3 3 4 4 5 5 5 5 4 5 5 5 6 6 6 6 5 5 5 5 6 6 6 6 6 6 6 6 5 6 7 7 7 7 7 7 7
1 1 1 2 2 2 3 3 3 3 3 4 3 3 2 1 3 4 5 6 6 6 5 5 5 5 4 4 5 5 6 6 6 6 5 5 6 7 7 7 7 7 7
1 1 2 1 2 3 3 2 2 2 2 2 2 2 2 1 1 1 2 3 4 5 5 5 5 5 5 4 5 5 5 5 5 5 6 5 5 5 6 7 7 7 6
1 1 1 2 2 1 1 1 0 0 1 1 1 2 2 2 1 1 0 2 2 2 3 4 4 4 4 4 4 4 5 4 4 4 5 5 5 4 5 6 7 7 7
0 0 1 1 1 0 0 -0 -0 -0 -0 -0 0 0 1 1 1 -0 -0 -0 1 1 2 2 3 4 3 4 4 4 4 4 4 3 4 3 3 3 3 4 5 5 6
-1 -1 -1 -1 -1 -0 -0 -0 -1 -1 -1 -1 -1 -1 -0 -0 -1 -2 -3 -2 -2 -1 0 1 1 2 2 3 3 3 3 3 4 3 3 3 3 2 3 3 3 3 4
-2 -2 -1 -1 -1 -1 -1 -0 -1 -1 -1 -2 -2 -2 -2 -2 -3 -3 -3 -3 -3 -2 -1 -1 -0 1 2 2 2 2 2 2 2 2 2 2 2 2 1 2 2 2 1
-2 -2 -2 -1 -1 -1 -1 -1 -1 -1 -1 -2 -2 -2 -2 -2 -2 -3 -3 -3 -3 -3 -2 -1 -1 -1 0 1 2 1 1 2 2 3 3 3 1 1 0 0 1 1 1
-2 -1 -1 -1 -1 -1 -1 -1 -1 -1 -1 -1 -2 -2 -2 -2 -3 -3 -3 -3 -3 -3 -3 -3 -2 -2 -1 -0 0 1 1 2 2 2 2 2 2 1 2 3 2 2 2
-1 -1 -1 -1 -2 -2 -2 -2 -1 -2 -2 -2 -2 -2 -2 -2 -3 -3 -3 -3 -3 -3 -3 -2 -2 -2 -2 -2 -1 -1 -0 -0 -0 0 -0 -1 -0 1 2 2 3 1 0
-2 -2 -2 -2 -2 -2 -2 -2 -2 -2 -2 -2 -2 -2 -2 -2 -3 -3 -3 -3 -3 -3 -2 -2 -2 -2 -2 -2 -2 -2 -2 -2 -2 -2 -2 -2 -2 -1 -0 -0 -1 -2 -2
-2 -2 -2 -2 -2 -2 -2 -2 -2 -2 -2 -2 -2 -2 -2 -3 -3 -3 -3 -3 -3 -3 -3 -3 -3 -3 -3 -2 -3 -3 -3 -3 -3 -3 -4 -4 -4 -3 -3 -3 -2 -3 -2
-2 -2 -2 -2 -2 -2 -2 -2 -2 -2 -2 -2 -2 -2 -3 -3 -3 -3 -3 -3 -3 -3 -3 -3 -3 -3 -4 -4 -4 -4 -4 -5 -5 -6 -6 -5 -5 -5 -5 -4 -4 -4 -3
-2 -2 -2 -2 -2 -2 -2 -3 -3 -3 -3 -3 -3 -3 -3 -3 -3 -3 -4 -4 -4 -4 -4 -4 -4 -5 -5 -6 -6 -6 -6 -6 -6 -7 -7 -7 -6 -6 -6 -5 -5 -5 -5
-2 -2 -2 -2 -2 -3 -3 -3 -3 -3 -3 -3 -3 -3 -4 -4 -4 -4 -4 -4 -4 -4 -4 -4 -5 -5 -6 -6 -7 -7 -7 -7 -7 -7 -7 -7 -7 -6 -6 -6 -6 -6 -5
-2 -2 -2 -3 -3 -3 -3 -3 -3 -4 -4 -4 -4 -4 -4 -4 -4 -4 -4 -4 -4 -4 -4 -4 -4 -5 -6 -7 -7 -7 -7 -7 -7 -7 -7 -7 -7 -7 -7 -6 -6 -7 -7
-2 -2 -2 -3 -3 -3 -3 -4 -4 -4 -4 -4 -4 -4 -4 -4 -4 -4 -4 -4 -4 -4 -4 -5 -5 -6 -7 -7 -8 -8 -8 -8 -8 -8 -8 -8 -8 -8 -7 -7 -6 -6 -7
-2 -2 -2 -3 -3 -3 -4 -4 -4 -4 -4 -4 -4 -4 -4 -4 -5 -5 -4 -4 -4 -5 -5 -5 -6 -7 -7 -8 -8 -8 -8 -8 -8 -8 -8 -8 -9 -9 -8 -7 -7 -7 -7
-2 -3 -3 -3 -3 -4 -4 -4 -4 -4 -4 -4 -5 -5 -5 -5 -5 -5 -5 -5 -5 -5 -5 -6 -6 -7 -7 -8 -8 -9 -8 -8 -8 -9 -9 -9 -9 -9 -8 -8 -7 -6 -6
-2 -3 -3 -3 -3 -4 -4 -4 -5 -5 -5 -5 -5 -5 -5 -5 -5 -5 -5 -5 -5 -5 -5 -6 -7 -7 -8 -8 -9 -9 -9 -9 -9 -9 -9 -9 -9 -9 -9 -9 -8 -7 -6
-2 -3 -3 -3 -4 -4 -4 -5 -5 -5 -5 -5 -5 -5 -5 -5 -5 -5 -5 -5 -5 -6 -6 -7 -7 -8 -8 -9 -9 -9 -9 -9 -9 -9 -9 -9 -9 -9 -8 -8 -8 -8 -7
-3 -3 -3 -3 -4 -4 -4 -5 -5 -5 -5 -5 -5 -6 -6 -6 -6 -6 -6 -6 -6 -6 -6 -7 -7 -8 -8 -9 -9 -9 -9 -9 -9 -9 -9 -9 -9 -9 -9 -9 -9 -9 -9
-3 -3 -3 -3 -4 -4 -5 -5 -5 -5 -5 -6 -6 -6 -6 -6 -6 -6 -6 -6 -6 -6 -6 -7 -8 -8 -8 -9 -9 -9 -9 -9 -9 -9 -9 -9 -9 -10 -10 -10 -10 -10 -9
-3 -3 -3 -4 -4 -4 -5 -5 -5 -5 -6 -6 -6 -6 -6 -6 -6 -6 -6 -6 -7 -7 -7 -8 -8 -9 -9 -9 -10 -10 -10 -10 -10 -10 -10 -10 -10 -10 -10 -10 -10 -10 -10
-4 -4 -4 -4 -4 -4 -5 -5 -5 -6 -6 -6 -6 -6 -6 -6 -6 -6 -6 -7 -7 -7 -8 -8 -9 -9 -10 -10 -10 -10 -10 -10 -11 -10 -11 -11 -11 -11 -11 -11 -10 -10 -10

GFSMW_700_temp_282.txt.gz
Temp
4 4 4 4 4 4 4 5 5 5 5 5 6 6 5 5 5 6 6 6 6 6 6 6 6 6 6 6 6 6 6 6 6 6 7 7 7 7 7 7 7 7 7
3 3 3 3 3 3 3 4 4 4 4 4 4 5 5 4 4 4 5 5 5 5 5 5 6 5 6 5 5 5 5 6 6 6 6 6 7 7 7 7 7 7 7
2 2 2 2 3 3 3 3 4 3 3 4 4 4 4 4 3 3 3 3 4 4 4 5 5 5 4 5 5 5 5 5 5 5 5 5 4 4 5 4 6 7 6
1 2 2 2 2 2 3 3 3 3 3 3 3 3 3 3 2 2 3 2 2 2 3 3 3 4 3 4 5 5 5 5 4 4 4 5 5 5 5 5 3 3 5
1 1 1 2 2 2 2 2 2 2 2 2 2 2 3 3 3 2 2 2 1 1 2 2 2 2 3 3 4 4 4 4 4 4 5 5 4 4 5 3 4 4 3
-0 0 0 1 1 1 1 1 1 1 1 1 1 1 1 2 2 2 1 0 -1 -1 -1 -0 0 1 1 2 3 3 3 3 3 4 3 3 3 3 3 3 3 4 5
-1 -1 -1 -1 -0 0 0 1 1 0 0 0 0 0 0 0 0 0 0 -0 -1 -1 -2 -2 -2 -1 -1 0 1 1 2 2 2 2 2 2 2 2 3 2 2 2 2
-1 -1 -1 -1 -0 -0 0 0 0 0 0 -0 -0 -0 -0 -0 -1 -1 -1 -1 -1 -1 -2 -2 -2 -2 -2 -1 -0 0 1 1 1 2 2 2 1 1 2 1 0 1 1
-1 -1 -0 -0 -0 0 0 -0 -0 -0 -0 -1 -1 -1 -1 -1 -1 -1 -1 -1 -1 -2 -2 -2 -2 -2 -2 -1 -1 -1 -0 0 1 1 2 2 2 2 2 2 1 2 3
-0 -0 -0 -0 -0 -0 -0 -0 -0 -1 -0 -1 -1 -1 -1 -1 -1 -1 -1 -1 -1 -2 -2 -2 -2 -2 -2 -1 -1 -1 -1 -1 -0 -0 0 0 0 -0 -0 0 0 -0 -1
-0 0 0 -0 -0 -1 -1 -1 -1 -1 -1 -1 -1 -1 -1 -1 -1 -1 -1 -1 -1 -1 -2 -1 -2 -2 -2 -1 -1 -1 -1 -1 -1 -1 -1 -1 -1 -1 -0 -2 -2 -1 -2
0 0 0 -0 -1 -1 -1 -1 -1 -1 -1 -1 -1 -1 -2 -1 -2 -2 -2 -2 -2 -2 -2 -2 -2 -2 -2 -1 -1 -1 -1 -1 -1 -1 -2 -2 -2 -3 -3 -3 -3 -3 -3
0 0 -0 -1 -1 -1 -1 -1 -1 -1 -1 -1 -2 -2 -2 -2 -2 -2 -2 -2 -2 -2 -2 -2 -2 -2 -2 -2 -2 -2 -2 -2 -2 -3 -3 -3 -3 -4 -4 -5 -5 -5 -4
-0 -1 -1 -1 -1 -1 -1 -2 -2 -2 -2 -2 -2 -2 -2 -2 -2 -2 -2 -2 -3 -3 -3 -3 -3 -3 -3 -3 -4 -4 -4 -5 -5 -6 -5 -5 -5 -5 -5 -6 -6 -6 -6
-0 -1 -1 -1 -1 -2 -2 -2 -2 -2 -2 -2 -2 -2 -2 -2 -2 -3 -3 -3 -3 -3 -3 -3 -3 -3 -3 -3 -4 -5 -6 -6 -6 -6 -7 -7 -7 -7 -7 -7 -6 -6 -6
-0 -1 -1 -1 -2 -2 -2 -2 -2 -2 -2 -2 -3 -3 -3 -3 -3 -3 -3 -3 -3 -4 -4 -3 -3 -4 -4 -5 -5 -6 -7 -7 -7 -7 -7 -7 -7 -7 -7 -7 -7 -7 -7
-0 -0 -1 -1 -2 -2 -2 -2 -2 -3 -3 -3 -3 -3 -3 -3 -3 -3 -4 -4 -4 -4 -4 -4 -4 -4 -4 -5 -6 -7 -7 -8 -8 -7 -8 -7 -7 -7 -7 -7 -7 -7 -7
-0 -0 -1 -1 -2 -2 -2 -2 -3 -3 -3 -3 -3 -4 -3 -4 -4 -4 -4 -4 -4 -4 -4 -4 -4 -5 -5 -6 -7 -7 -8 -8 -8 -8 -8 -8 -8 -8 -8 -8 -8 -8 -7
-1 -1 -1 -2 -2 -2 -2 -3 -3 -3 -4 -4 -4 -4 -4 -4 -4 -4 -4 -4 -4 -4 -4 -4 -5 -5 -6 -7 -7 -8 -8 -8 -8 -8 -8 -8 -9 -9 -9 -8 -8 -8 -7
-2 -1 -1 -2 -2 -2 -3 -3 -3 -4 -4 -4 -4 -4 -4 -4 -4 -4 -4 -4 -5 -5 -5 -5 -5 -5 -6 -7 -7 -8 -8 -8 -8 -8 -9 -9 -9 -9 -9 -9 -9 -8 -8
-1 -1 -1 -2 -2 -2 -3 -3 -4 -4 -4 -4 -4 -4 -4 -4 -5 -5 -5 -5 -5 -5 -5 -5 -5 -6 -6 -7 -8 -8 -8 -8 -8 -8 -8 -9 -9 -9 -9 -9 -9 -9 -8
-1 -1 -2 -2 -2 -2 -3 -3 -4 -4 -4 -4 -4 -5 -5 -5 -5 -5 -5 -5 -5 -5 -5 -5 -6 -6 -7 -8 -8 -8 -9 -9 -9 -9 -9 -9 -9 -10 -10 -10 -10 -9 -9
-1 -2 -2 -2 -2 -3 -3 -3 -4 -4 -4 -5 -5 -5 -5 -5 -5 -5 -5 -6 -6 -6 -6 -6 -5 -6 -7 -7 -8 -8 -9 -9 -9 -9 -9 -9 -9 -9 -10 -10 -10 -10 -10
-1 -2 -2 -2 -3 -3 -3 -4 -4 -4 -5 -5 -5 -5 -5 -6 -6 -6 -6 -6 -6 -6 -6 -6 -6 -6 -7 -7 -8 -8 -9 -9 -9 -9 -9 -9 -9 -10 -10 -10 -10 -11 -11
-1 -2 -2 -3 -3 -3 -3 -4 -4 -4 -5 -5 -5 -5 -6 -6 -6 -6 -6 -6 -6 -6 -6 -6 -6 -6 -7 -8 -8 -9 -9 -9 -9 -9 -9 -10 -10 -10 -10 -10 -11 -11 -11
-2 -2 -3 -3 -3 -3 -3 -4 -4 -5 -5 -5 -5 -5 -6 -6 -6 -6 -6 -6 -7 -7 -7 -7 -7 -7 -8 -8 -9 -9 -9 -10 -10 -10 -10 -10 -10 -10 -10 -10 -10 -10 -10

GFSMW_700_temp_285.txt.gz
Temp
4 4 5 5 5 5 5 5 5 5 5 5 6 6 6 6 5 5 5 5 5 5 5 6 5 5 5 5 5 5 5 6 5 5 5 6 6 7 7 7 7 8 8
3 3 4 4 4 4 4 4 4 4 5 4 5 5 5 5 5 5 5 4 5 5 5 5 5 5 4 5 5 4 5 5 5 5 5 5 5 6 7 7 7 7 7
3 3 3 3 4 4 4 4 4 4 4 4 4 4 4 4 5 5 4 4 4 4 4 4 4 4 4 3 3 4 4 5 5 5 4 5 5 5 3 4 4 4 3
3 3 2 3 3 3 3 3 3 3 4 4 4 4 3 3 3 3 3 3 3 3 3 3 3 3 3 3 3 3 3 3 3 4 4 5 4 5 5 5 5 4 5
2 2 2 2 2 2 3 3 3 3 4 3 3 3 3 3 3 3 3 3 2 2 2 1 1 1 1 1 1 1 2 2 2 2 3 3 4 4 4 4 4 4 4
1 1 1 1 2 2 2 2 2 2 2 3 2 2 2 2 2 2 2 2 2 2 2 1 0 0 -0 -0 -1 -1 0 0 2 2 3 3 3 3 3 3 3 3 3
1 1 0 1 1 1 1 2 2 2 2 2 2 2 2 2 2 2 2 1 1 1 1 1 0 -0 -1 -1 -1 -1 -1 0 1 1 1 1 2 2 2 2 2 3 3
0 -0 -0 0 1 1 1 1 1 1 1 1 1 1 1 1 1 1 1 1 1 1 1 0 -0 -0 -1 -1 -1 -1 -1 -1 -1 -0 0 0 0 1 1 1 2 2 2
-0 -1 -0 0 0 0 1 1 1 1 1 1 1 1 0 0 0 0 0 0 -0 -0 -0 -0 -0 -1 -1 -1 -1 -1 -1 -1 -1 -1 -0 -0 0 0 0 0 -0 -0 1
-2 -2 -1 -0 0 0 1 1 1 1 0 0 0 0 0 -0 -0 -0 -0 -1 -1 -1 -1 -1 -1 -1 -1 -1 -1 -1 -1 -1 -1 -1 -1 -1 -1 -1 -1 -1 -2 -2 -2
-2 -1 -1 0 0 0 0 0 0 0 -0 -0 -0 -0 -1 -1 -1 -1 -1 -1 -1 -1 -1 -1 -1 -1 -1 -1 -1 -1 -1 -1 -1 -2 -2 -2 -2 -2 -3 -3 -3 -4 -4
-1 -0 0 0 0 0 0 0 -0 -0 -0 -1 -1 -1 -1 -1 -1 -1 -1 -1 -1 -1 -1 -1 -1 -1 -1 -1 -1 -1 -1 -2 -2 -2 -2 -3 -3 -4 -4 -5 -5 -5 -6
-1 0 1 1 0 0 0 -0 -0 -0 -1 -1 -1 -1 -1 -1 -1 -1 -2 -2 -2 -2 -2 -2 -2 -2 -2 -2 -2 -2 -2 -3 -3 -4 -4 -5 -5 -5 -5 -5 -6 -6 -6
0 1 1 1 1 0 0 -0 -0 -0 -0 -1 -1 -1 -1 -1 -1 -2 -2 -2 -2 -2 -2 -2 -2 -2 -2 -2 -2 -3 -3 -4 -4 -5 -6 -6 -6 -6 -7 -7 -6 -6 -6
1 1 1 1 1 0 0 -0 -0 -0 -1 -1 -1 -1 -1 -2 -2 -2 -2 -2 -2 -3 -3 -3 -3 -3 -3 -3 -3 -3 -3 -4 -5 -6 -6 -7 -7 -7 -7 -7 -7 -7 -7
2 1 1 1 1 0 -0 -0 -0 -1 -1 -1 -1 -1 -2 -2 -2 -2 -2 -2 -3 -3 -3 -3 -3 -3 -3 -3 -3 -3 -4 -5 -6 -7 -7 -7 -7 -7 -7 -8 -8 -8 -8
2 1 1 1 0 -0 -0 -1 -1 -1 -1 -1 -1 -2 -2 -2 -2 -2 -2 -3 -3 -3 -3 -3 -3 -3 -4 -4 -4 -4 -5 -6 -7 -7 -7 -7 -7 -8 -8 -8 -8 -8 -8
1 1 1 0 0 -0 -1 -1 -1 -1 -1 -2 -2 -2 -2 -3 -3 -3 -3 -3 -3 -3 -4 -4 -4 -4 -4 -4 -4 -5 -5 -6 -7 -7 -8 -8 -8 -8 -8 -8 -8 -8 -8
1 1 1 0 0 -0 -1 -1 -1 -1 -2 -2 -2 -2 -3 -3 -3 -3 -3 -3 -4 -4 -4 -4 -4 -4 -4 -4 -5 -5 -6 -7 -7 -7 -8 -8 -8 -8 -9 -8 -8 -8 -8
0 1 0 0 0 -0 -1 -1 -1 -2 -2 -2 -2 -3 -3 -3 -3 -3 -3 -4 -4 -4 -4 -5 -5 -5 -5 -5 -5 -6 -6 -6 -7 -7 -8 -8 -9 -9 -9 -9 -9 -8 -9
1 0 0 0 -0 -0 -1 -1 -1 -2 -2 -2 -3 -3 -3 -3 -3 -3 -4 -4 -4 -4 -5 -5 -5 -5 -5 -5 -6 -6 -7 -7 -8 -8 -7 -8 -9 -9 -9 -10 -10 -10 -10
1 1 1 0 0 -0 -1 -1 -1 -2 -2 -2 -3 -3 -3 -3 -3 -4 -4 -4 -5 -5 -5 -5 -5 -5 -5 -6 -6 -6 -7 -8 -8 -8 -8 -8 -9 -9 -9 -9 -10 -10 -10
1 1 0 -0 -0 -1 -1 -1 -1 -2 -2 -2 -3 -3 -3 -3 -4 -4 -4 -5 -5 -5 -5 -6 -5 -5 -5 -6 -6 -6 -7 -8 -8 -9 -9 -9 -9 -9 -9 -10 -10 -10 -10
0 0 -0 -1 -1 -1 -1 -2 -2 -2 -2 -3 -3 -3 -3 -4 -4 -4 -5 -5 -5 -5 -6 -6 -6 -6 -6 -6 -6 -7 -7 -8 -8 -9 -9 -9 -9 -9 -10 -10 -10 -10 -11
0 -0 -1 -1 -1 -2 -2 -2 -2 -2 -3 -3 -3 -4 -4 -4 -4 -5 -5 -5 -6 -6 -6 -6 -6 -6 -6 -6 -7 -7 -8 -8 -9 -9 -9 -10 -10 -10 -10 -10 -10 -11 -11
-0 -0 -1 -1 -1 -2 -2 -2 -2 -3 -3 -3 -3 -4 -4 -4 -5 -5 -5 -6 -6 -6 -6 -7 -7 -6 -7 -7 -7 -8 -9 -9 -9 -9 -9 -10 -10 -10 -10 -10 -10 -11 -11

GFSMW_700_temp_288.txt.gz
Temp
6 6 6 6 6 6 6 6 6 6 6 6 6 6 6 6 6 6 5 5 5 5 5 5 5 5 5 5 4 4 5 5 4 4 5 5 5 5 5 5 5 5 6
5 5 5 5 5 5 5 5 5 5 5 5 5 5 5 5 6 5 5 5 5 5 5 5 4 4 4 4 4 4 3 4 3 4 4 5 5 5 5 5 5 4 5
4 4 3 4 4 4 4 5 5 4 4 4 5 5 5 5 5 5 5 4 4 4 4 4 4 4 4 3 3 3 3 3 3 2 3 3 3 4 4 4 5 5 4
4 3 3 4 4 4 4 4 4 4 4 4 5 5 4 4 4 4 4 4 3 3 3 4 4 4 3 3 3 3 2 2 1 1 1 1 2 2 3 3 3 4 3
3 3 3 3 3 3 3 4 4 4 4 4 4 4 3 3 3 3 3 3 3 3 3 3 3 3 2 2 1 1 0 -0 -1 0 0 1 2 1 1 2 4 3 2
2 2 2 2 2 2 3 3 4 4 4 4 3 3 3 3 3 3 2 2 2 2 2 2 2 2 2 2 1 1 0 0 -0 0 -0 -0 1 1 1 1 1 1 3
2 2 1 2 2 2 2 3 3 3 3 3 3 3 3 2 2 2 2 2 2 2 2 2 2 2 2 1 1 1 1 0 0 1 0 -1 -1 -0 0 0 1 1 2
1 1 1 2 2 2 2 2 2 2 2 2 3 2 2 2 2 2 2 2 2 2 2 1 1 1 1 0 0 0 1 0 0 0 0 0 -0 -0 -1 -1 -0 1 1
1 0 1 1 1 2 2 2 2 2 2 1 2 2 2 2 2 2 2 2 1 1 1 0 0 0 0 0 0 0 0 0 0 0 0 0 -0 -0 -1 -1 -2 -2 -1
0 0 1 1 1 1 1 1 1 1 1 1 1 1 1 1 1 1 1 0 0 -0 -0 -0 -0 -0 -0 0 0 0 0 -0 -0 -0 -0 -0 -0 -0 -1 -2 -3 -3 -3
-0 1 1 2 2 1 1 1 1 1 1 1 1 1 1 1 1 0 -0 -0 -0 -0 -1 -0 -0 -0 -0 -0 -0 -1 -0 -0 -0 -0 -0 -1 -1 -1 -2 -2 -4 -4 -5
0 1 2 1 1 1 1 1 1 1 1 1 1 1 0 0 -0 -0 -0 -1 -1 -1 -1 -1 -1 -1 -1 -1 -1 -1 -1 -1 -1 -1 -2 -2 -3 -3 -4 -5 -5 -6 -6
-0 1 1 1 1 1 1 1 1 1 1 1 1 0 -0 -0 -1 -1 -1 -1 -1 -1 -1 -1 -2 -2 -2 -2 -2 -2 -2 -2 -2 -2 -3 -3 -4 -5 -5 -6 -7 -6 -6
0 1 2 1 1 1 1 1 1 1 1 0 0 -0 -0 -1 -1 -1 -1 -1 -1 -2 -2 -2 -2 -2 -2 -2 -2 -2 -2 -3 -3 -3 -4 -5 -6 -6 -6 -7 -6 -6 -6
0 1 2 2 1 1 1 1 1 0 0 -0 -0 -0 -1 -1 -1 -1 -1 -2 -2 -2 -2 -2 -3 -2 -2 -3 -3 -3 -3 -3 -3 -4 -5 -6 -7 -7 -7 -7 -7 -7 -7
1 1 2 2 2 1 1 1 1 0 -0 -0 -0 -0 -1 -1 -1 -1 -1 -2 -2 -2 -2 -3 -3 -3 -3 -3 -3 -3 -3 -4 -4 -4 -5 -7 -7 -7 -8 -8 -8 -8 -8
1 2 2 2 2 2 1 1 0 0 -0 -0 -0 -0 -1 -1 -1 -1 -2 -2 -2 -2 -3 -3 -3 -3 -3 -3 -4 -4 -4 -4 -4 -5 -6 -7 -7 -8 -8 -8 -8 -8 -8
2 2 2 2 2 1 1 1 1 0 0 -0 -0 -0 -1 -1 -1 -1 -2 -2 -2 -2 -3 -3 -3 -3 -4 -4 -4 -4 -4 -4 -5 -6 -6 -7 -7 -8 -8 -8 -8 -8 -8
2 3 2 2 2 1 1 1 1 0 -0 -0 -0 -0 -1 -1 -1 -1 -2 -2 -2 -3 -3 -3 -3 -4 -4 -4 -4 -4 -4 -5 -5 -6 -7 -7 -8 -8 -8 -8 -8 -8 -9
1 2 2 2 2 1 1 1 0 0 -0 -0 -0 -1 -1 -1 -1 -2 -2 -2 -2 -3 -3 -4 -4 -4 -4 -5 -5 -5 -5 -5 -5 -6 -7 -8 -8 -8 -9 -9 -9 -9 -9
1 1 1 2 2 1 1 0 0 0 -0 -0 -0 -1 -1 -1 -2 -2 -2 -2 -3 -3 -4 -4 -4 -4 -5 -5 -5 -5 -5 -5 -5 -6 -7 -8 -8 -8 -9 -9 -9 -10 -10
1 1 1 2 2 1 1 0 0 -0 -0 -1 -1 -1 -1 -1 -2 -2 -2 -3 -3 -3 -4 -4 -4 -5 -5 -5 -5 -5 -6 -6 -6 -7 -8 -8 -8 -9 -9 -10 -10 -10 -10
1 1 1 2 1 1 0 0 -0 -0 -1 -1 -1 -1 -1 -2 -2 -2 -3 -3 -3 -4 -4 -4 -4 -5 -5 -6 -6 -6 -6 -6 -6 -7 -8 -8 -9 -9 -10 -10 -10 -10 -10
-0 0 1 2 1 1 0 -0 -0 -0 -1 -1 -1 -1 -2 -2 -2 -3 -3 -3 -4 -4 -4 -4 -5 -5 -6 -6 -6 -6 -6 -6 -7 -7 -8 -9 -9 -9 -10 -10 -10 -10 -11
-1 -1 1 1 1 0 -1 -1 -1 -1 -1 -1 -2 -2 -2 -3 -3 -3 -4 -4 -4 -4 -5 -5 -5 -5 -6 -6 -6 -6 -6 -7 -7 -8 -9 -9 -9 -9 -10 -10 -10 -10 -11
-1 -2 -0 0 0 -0 -1 -1 -1 -1 -2 -2 -2 -2 -3 -3 -4 -4 -4 -4 -4 -5 -5 -5 -5 -6 -6 -6 -6 -6 -7 -7 -8 -9 -9 -9 -9 -10 -10 -10 -10 -11 -11

GFSMW_700_temp_291.txt.gz
Temp
6 6 6 6 7 7 6 7 7 7 7 6 7 7 7 7 6 6 6 6 5 5 5 5 5 5 5 5 5 5 4 4 4 5 5 4 5 4 4 4 4 4 4
5 6 6 6 7 6 6 6 6 5 5 5 5 5 6 6 6 6 5 5 5 5 5 5 5 5 5 5 5 5 4 4 4 4 4 5 5 4 3 3 3 3 3
5 6 6 6 6 6 5 5 5 5 5 5 5 5 5 5 5 5 5 5 5 4 4 4 5 5 5 5 4 4 4 4 4 4 3 3 3 4 4 3 3 2 2
6 5 5 5 4 4 4 4 4 4 4 5 5 5 5 4 4 4 4 4 4 4 4 4 4 4 4 4 4 4 3 3 3 2 1 1 1 2 3 3 3 2 2
4 4 4 4 4 4 4 4 4 4 4 4 4 4 4 4 4 4 4 3 3 3 3 3 3 3 3 3 2 2 2 2 2 2 2 1 1 1 1 2 3 2 1
3 3 3 4 4 4 4 3 3 4 4 4 4 4 4 4 3 3 3 3 3 3 3 2 2 2 2 2 2 2 1 1 1 1 1 1 1 2 2 2 2 3 3
3 3 3 3 3 2 3 3 3 3 3 3 3 3 3 3 3 3 2 2 2 2 2 2 2 2 2 2 1 1 1 1 1 1 1 1 1 1 1 2 2 2 3
2 1 1 2 2 2 2 2 3 3 3 3 3 3 2 2 2 2 2 1 1 1 1 1 1 1 1 1 1 1 1 1 1 1 1 1 1 1 1 2 2 3 3
2 1 2 2 1 1 2 2 3 3 3 2 2 2 2 2 2 2 2 1 1 1 1 1 1 1 1 1 0 0 0 0 1 0 1 1 1 1 0 0 0 1 2
1 1 1 1 1 1 2 2 2 2 2 2 2 2 2 2 1 1 1 1 1 0 0 1 1 1 1 1 0 0 -0 -0 -0 0 0 0 0 0 -0 -0 -1 -1 -1
1 1 1 1 1 1 2 2 2 2 2 2 1 1 1 1 0 0 0 0 0 0 0 0 0 0 -0 -0 -1 -1 -1 -1 -1 -1 -0 -0 -0 -1 -1 -2 -2 -3 -4
1 2 2 2 2 2 2 2 2 1 1 1 1 1 0 0 -0 0 0 -0 0 0 -0 -0 -0 -1 -1 -1 -1 -1 -1 -1 -1 -1 -1 -1 -1 -1 -2 -2 -3 -4 -5
2 3 2 2 2 2 2 2 1 1 1 1 1 0 0 0 0 -0 -0 -0 -0 -0 -0 -1 -1 -1 -1 -2 -1 -1 -2 -2 -2 -2 -2 -2 -2 -2 -3 -4 -5 -5 -6
3 3 3 3 2 2 2 2 1 1 1 1 0 0 0 -0 -0 -0 -0 -0 -0 -1 -1 -1 -1 -1 -2 -2 -2 -2 -2 -2 -2 -2 -3 -3 -3 -3 -4 -4 -6 -6 -6
3 3 3 3 2 2 2 1 1 1 1 1 0 0 -0 -0 -0 -0 -0 -0 -1 -1 -1 -1 -1 -1 -2 -2 -2 -2 -3 -3 -3 -3 -3 -4 -4 -4 -5 -6 -7 -7 -7
3 3 3 3 3 2 2 1 1 1 1 0 0 0 -0 -0 -0 -0 -0 -1 -1 -1 -1 -1 -2 -2 -2 -2 -3 -3 -3 -3 -3 -3 -4 -4 -5 -5 -6 -7 -7 -8 -8
4 4 4 3 3 2 2 1 1 1 1 0 0 -0 -0 -0 -0 -0 -1 -1 -1 -1 -1 -2 -2 -2 -2 -2 -3 -3 -3 -4 -4 -4 -4 -4 -5 -5 -6 -7 -7 -8 -9
4 4 4 3 3 2 2 1 1 1 0 0 0 -0 -0 -0 -0 -1 -1 -1 -1 -1 -2 -2 -2 -2 -2 -2 -3 -3 -4 -4 -4 -4 -5 -5 -5 -6 -7 -7 -7 -8 -9
3 3 3 3 3 2 2 1 1 0 0 0 0 -0 -0 -0 -1 -1 -1 -1 -1 -2 -2 -2 -2 -2 -3 -3 -3 -3 -4 -4 -5 -5 -5 -5 -6 -7 -8 -7 -8 -8 -9
2 2 2 3 3 2 2 1 1 1 0 0 0 -0 -0 -0 -0 -1 -1 -1 -1 -2 -2 -2 -2 -3 -3 -3 -4 -4 -4 -4 -4 -5 -5 -6 -7 -8 -8 -8 -8 -8 -9
2 1 2 2 2 2 2 1 1 1 0 0 -0 -0 -0 -1 -1 -1 -1 -1 -2 -2 -2 -3 -3 -3 -4 -4 -4 -4 -4 -4 -5 -5 -5 -6 -7 -8 -8 -9 -10 -10 -10
2 2 2 2 2 2 1 1 1 0 0 0 -0 -1 -1 -1 -1 -1 -1 -2 -2 -2 -3 -3 -3 -4 -4 -4 -4 -5 -5 -5 -5 -5 -6 -6 -7 -8 -9 -10 -10 -10 -10
2 2 2 2 2 2 1 1 0 0 0 -0 -1 -1 -1 -1 -1 -2 -2 -2 -2 -3 -3 -3 -4 -4 -4 -4 -5 -5 -5 -6 -5 -6 -6 -7 -8 -9 -9 -9 -10 -10 -10
2 1 1 1 1 1 1 -0 -1 -0 -0 -1 -1 -1 -1 -2 -2 -2 -2 -3 -3 -3 -4 -4 -4 -4 -4 -5 -5 -5 -5 -5 -5 -6 -6 -7 -8 -8 -9 -9 -10 -10 -10
1 1 0 0 1 1 0 -1 -1 -1 -1 -2 -1 -1 -2 -2 -2 -3 -3 -3 -4 -4 -4 -4 -4 -4 -5 -5 -5 -5 -6 -6 -6 -6 -7 -8 -8 -8 -9 -9 -10 -10 -10
0 -0 -0 -0 -0 -0 -0 -1 -1 -1 -1 -2 -2 -2 -2 -3 -3 -3 -3 -4 -4 -4 -4 -5 -5 -5 -5 -5 -5 -6 -6 -6 -7 -7 -7 -8 -8 -9 -9 -9 -9 -10 -11

GFSMW_700_temp_297.txt.gz
Temp
5 5 5 5 5 5 6 6 7 7 7 7 6 6 6 6 6 6 6 6 6 5 5 5 5 5 5 5 5 5 5 5 5 5 5 4 4 4 3 3 2 2 2
6 5 5 4 5 6 6 6 6 6 6 6 6 6 5 5 5 5 5 5 5 5 5 5 5 5 5 5 5 5 5 5 5 5 4 4 3 3 3 3 3 3 3
4 5 5 5 4 5 5 5 5 5 5 5 5 5 5 5 5 5 5 5 5 5 5 4 5 4 4 4 4 4 4 5 5 5 5 5 5 5 4 3 3 3 3
3 4 4 4 4 5 5 4 4 4 4 4 5 4 4 4 5 5 4 4 4 4 4 3 3 3 4 4 4 4 4 4 4 4 4 4 4 4 5 4 3 3 3
2 3 3 3 4 4 4 4 4 4 4 4 4 4 4 4 4 4 4 3 3 3 3 3 3 3 3 3 3 3 3 4 4 4 3 3 3 3 3 4 4 3 3
3 3 3 3 3 3 3 3 4 4 3 3 3 3 3 3 3 3 3 3 3 3 3 3 2 3 3 3 3 3 3 3 3 3 3 3 3 2 2 3 3 2 2
3 3 3 3 3 2 3 3 3 3 3 3 3 3 3 2 3 3 2 2 2 2 2 2 2 2 2 2 2 2 2 2 2 2 2 2 1 1 1 2 2 2 3
3 3 2 2 2 2 2 2 3 3 2 2 2 2 2 2 2 2 2 1 1 2 2 2 2 2 2 2 2 2 2 2 2 1 1 1 1 1 1 1 2 3 3
4 3 2 2 2 1 1 2 2 2 2 2 2 2 2 2 2 1 1 1 1 1 1 1 1 1 1 1 2 2 1 1 1 1 1 1 1 1 0 0 0 0 2
3 2 2 2 1 1 1 1 1 1 1 1 1 1 1 1 1 1 1 1 1 1 1 1 1 1 1 1 1 1 1 1 1 1 1 0 0 -0 -1 -1 -1 -1 -0
4 3 2 1 1 1 1 1 1 1 1 1 1 1 1 1 1 1 1 1 1 1 1 1 1 1 1 1 1 1 1 0 0 0 0 -0 -0 -1 -1 -1 -1 -1 -1
4 3 1 1 0 0 0 1 1 1 1 1 0 0 0 0 0 0 0 0 1 1 0 0 0 1 1 0 0 0 0 0 0 0 -0 -0 -0 -1 -1 -1 -2 -1 -1
3 2 1 1 0 0 1 1 1 1 1 0 0 0 0 0 0 0 0 0 0 0 0 0 0 0 -0 -0 -0 0 0 0 -0 -0 -0 -0 -1 -1 -2 -2 -2 -2 -2
2 2 1 0 0 1 1 1 1 1 1 1 0 0 0 0 0 0 0 -0 -0 -0 -0 -0 -0 -0 -0 -0 -0 -0 -1 -1 -1 -1 -1 -1 -2 -2 -2 -2 -2 -2 -3
2 1 1 0 1 1 1 1 1 1 1 1 1 0 0 -0 -0 -0 -1 -1 -1 -0 -0 -0 -0 -0 -1 -1 -1 -1 -1 -1 -1 -1 -2 -2 -2 -3 -3 -3 -3 -3 -4
2 1 1 1 1 2 2 1 1 1 1 1 0 0 -0 -0 -1 -1 -1 -1 -0 -0 -0 -0 -0 -1 -1 -1 -1 -1 -1 -1 -1 -2 -2 -3 -3 -3 -3 -4 -4 -5 -5
3 2 2 2 2 2 2 1 1 1 1 1 0 -0 -0 -1 -1 -1 -1 -1 -0 -0 -0 -0 -1 -1 -1 -2 -2 -2 -2 -2 -2 -2 -3 -3 -3 -3 -4 -4 -4 -6 -7
4 3 3 2 2 1 1 1 1 1 1 0 0 -0 -1 -1 -1 -1 -1 -1 -1 -1 -1 -1 -1 -1 -2 -2 -2 -2 -2 -3 -3 -3 -3 -4 -4 -4 -4 -4 -4 -6 -7
3 3 2 2 2 2 1 1 1 1 1 0 -0 -0 -1 -1 -1 -1 -1 -1 -1 -1 -1 -1 -1 -1 -2 -2 -2 -2 -3 -3 -3 -4 -4 -4 -4 -4 -4 -4 -5 -7 -7
3 3 2 2 2 2 1 1 1 1 1 0 -0 -1 -1 -1 -1 -1 -1 -1 -1 -1 -1 -1 -2 -2 -2 -2 -3 -3 -3 -3 -3 -4 -4 -5 -5 -5 -5 -5 -5 -7 -8
3 3 2 2 2 2 1 1 1 1 0 -0 -1 -1 -1 -1 -1 -1 -1 -1 -1 -1 -2 -2 -2 -2 -2 -3 -3 -3 -3 -3 -4 -4 -5 -5 -5 -5 -5 -6 -7 -8 -8
3 3 2 2 2 1 1 1 1 0 0 -0 -1 -1 -1 -1 -1 -1 -2 -2 -2 -2 -2 -2 -2 -3 -3 -3 -4 -4 -4 -4 -4 -5 -5 -5 -5 -5 -6 -7 -8 -8 -9
3 3 2 2 1 1 1 1 0 0 -0 -0 -0 -1 -1 -1 -1 -2 -2 -2 -2 -2 -2 -3 -3 -3 -3 -4 -4 -4 -4 -5 -5 -5 -5 -5 -6 -6 -6 -7 -8 -9 -9
3 3 2 2 1 1 0 0 -1 -1 -1 -0 -1 -1 -1 -2 -2 -2 -2 -2 -2 -3 -3 -3 -3 -4 -4 -4 -4 -5 -5 -5 -5 -6 -6 -6 -6 -6 -7 -8 -8 -9 -9
3 3 3 3 2 1 0 -0 -1 -1 -1 -1 -1 -1 -2 -2 -2 -2 -2 -3 -3 -3 -3 -4 -4 -4 -4 -5 -5 -5 -5 -5 -5 -6 -6 -6 -6 -6 -7 -8 -9 -9 -9
3 3 3 2 1 1 0 -1 -1 -2 -2 -1 -1 -1 -2 -2 -2 -2 -3 -3 -3 -4 -4 -4 -4 -4 -5 -5 -5 -5 -6 -6 -6 -6 -6 -6 -6 -6 -7 -8 -9 -9 -9

GFSMW_700_temp_303.txt.gz
Temp
5 5 5 5 3 3 2 2 3 2 4 4 5 6 6 6 6 6 6 6 6 6 6 5 5 5 5 4 4 4 4 4 4 4 4 3 3 3 3 3 3 3 3
5 5 4 4 4 3 3 2 2 3 3 4 4 4 5 5 5 5 5 5 5 5 5 4 4 4 3 3 3 3 3 3 4 4 3 3 3 3 3 2 3 3 3
4 4 3 4 4 4 4 4 4 3 2 4 4 4 5 5 4 5 5 5 5 4 4 4 3 3 3 2 3 3 3 3 3 3 3 3 3 2 2 2 2 2 2
4 4 3 3 4 4 4 4 4 4 3 4 4 5 5 5 5 4 4 4 4 3 3 3 3 2 3 3 3 3 3 3 3 3 3 3 2 2 2 2 1 1 1
4 3 3 3 3 4 4 4 4 4 4 4 4 5 4 4 4 3 3 3 3 3 2 3 2 2 2 2 2 2 2 2 3 3 3 3 3 3 3 3 2 2 2
4 3 3 3 3 3 3 4 4 3 4 4 4 5 4 4 3 2 2 2 2 2 2 2 2 2 2 2 2 2 2 2 2 2 2 2 2 2 2 2 2 1 1
3 3 3 3 3 3 3 3 3 3 3 3 3 3 3 3 2 2 2 2 2 2 2 2 1 1 2 2 2 2 2 2 2 2 2 2 2 2 2 2 2 2 1
4 3 3 2 2 2 2 3 2 3 3 3 3 3 2 2 2 2 2 1 1 1 1 1 1 1 1 2 2 2 2 2 2 2 2 2 2 1 1 1 1 1 1
4 3 3 2 2 2 2 2 2 2 3 3 2 2 2 2 2 2 1 1 1 1 1 1 1 1 1 1 1 1 2 2 2 1 1 1 1 1 1 1 0 0 1
4 4 3 2 2 2 2 2 2 2 2 2 2 2 1 1 1 1 1 1 1 1 0 1 1 1 1 1 1 1 1 1 1 1 1 1 0 0 0 -0 -0 -0 -1
5 4 3 2 2 1 1 1 1 1 1 1 1 1 1 1 1 1 1 1 0 0 0 0 1 1 1 1 1 1 1 1 1 0 0 0 -0 -0 -0 -1 -1 -1 -1
5 4 4 3 2 2 1 1 1 1 1 1 1 1 1 1 1 1 0 0 0 0 0 0 0 0 0 1 1 1 1 0 -0 -0 -0 -0 -1 -1 -1 -1 -1 -2 -2
4 4 3 3 2 1 1 1 1 1 1 1 1 1 0 0 0 0 -0 -0 -0 0 0 0 0 0 0 0 1 0 0 0 -0 -0 -0 -1 -1 -1 -1 -1 -2 -2 -2
5 4 4 3 2 1 0 0 0 1 1 1 1 1 0 0 0 -0 -0 -0 -0 -0 -0 -0 -0 0 0 0 0 -0 -0 -0 -0 -0 -1 -1 -1 -1 -2 -2 -2 -2 -3
5 5 4 3 2 1 0 0 1 1 1 1 1 0 0 -0 -0 -0 -0 -0 -0 -0 -0 -0 -0 0 -0 -0 -0 -1 -1 -1 -1 -1 -2 -2 -2 -2 -2 -2 -3 -3 -3
5 4 3 2 2 1 0 -0 1 1 1 1 0 0 0 -0 -0 -1 -1 -1 -1 -1 -1 -0 -0 -0 -0 -1 -1 -1 -1 -1 -1 -2 -2 -2 -2 -3 -3 -3 -4 -4 -3
4 4 4 2 1 0 -0 -0 1 1 1 1 1 0 0 -0 -0 -1 -1 -1 -1 -1 -1 -0 -1 -1 -1 -1 -1 -1 -1 -1 -1 -2 -2 -3 -3 -3 -3 -4 -4 -4 -4
4 3 2 2 1 -0 -1 -0 1 1 1 1 1 0 0 -0 -0 -1 -1 -1 -1 -1 -1 -1 -1 -1 -1 -1 -1 -1 -2 -2 -2 -2 -3 -3 -3 -3 -3 -4 -4 -4 -4
3 3 3 2 1 0 -1 0 1 1 1 1 1 0 0 -0 -0 -1 -1 -1 -1 -1 -1 -1 -1 -1 -1 -1 -1 -2 -2 -2 -3 -3 -3 -4 -4 -4 -4 -4 -4 -4 -5
4 3 3 2 1 0 0 1 2 2 1 1 1 0 0 -0 -0 -1 -1 -1 -1 -1 -1 -1 -1 -1 -1 -2 -2 -2 -2 -3 -3 -3 -4 -4 -4 -4 -4 -4 -4 -4 -5
3 3 3 3 2 1 1 2 2 2 1 1 1 0 0 -0 -0 -1 -1 -1 -1 -1 -1 -1 -1 -1 -2 -2 -2 -2 -3 -3 -4 -4 -4 -4 -4 -4 -5 -5 -5 -5 -5
3 3 3 3 3 3 2 2 2 1 1 1 1 0 0 -0 -0 -0 -1 -1 -1 -1 -1 -1 -2 -2 -2 -2 -2 -3 -3 -3 -4 -4 -4 -5 -5 -5 -5 -5 -5 -5 -6
3 3 3 3 3 3 3 3 2 2 1 1 1 1 0 -0 -0 -0 -1 -1 -1 -2 -2 -2 -2 -2 -2 -2 -3 -3 -3 -4 -4 -4 -5 -5 -5 -5 -6 -6 -6 -6 -6
3 3 3 3 3 3 3 3 2 1 1 1 1 0 0 0 -0 -0 -1 -1 -2 -2 -2 -2 -2 -2 -3 -3 -3 -3 -4 -4 -5 -5 -5 -6 -6 -6 -6 -6 -6 -6 -7
2 3 3 3 3 3 3 2 2 1 1 0 0 0 -0 -0 -0 -1 -1 -2 -2 -2 -2 -3 -3 -3 -3 -3 -4 -4 -4 -5 -5 -6 -6 -6 -6 -6 -6 -6 -6 -6 -7
2 2 3 2 2 2 2 2 2 1 0 0 0 -0 -0 -1 -1 -1 -2 -2 -2 -2 -3 -3 -3 -3 -3 -4 -4 -5 -5 -5 -6 -6 -6 -6 -6 -6 -6 -6 -6 -7 -7

GFSMW_700_temp_309.txt.gz
Temp
6 6 5 5 5 4 4 3 3 3 3 3 4 4 4 4 4 4 5 5 6 6 6 6 6 6 5 5 5 5 5 5 4 4 4 4 4 4 3 3 3 3 3
6 6 5 5 5 5 4 4 3 3 3 3 2 2 3 3 3 4 5 5 5 5 5 5 5 5 4 4 4 4 4 4 4 4 3 3 3 3 3 3 3 3 2
6 6 5 5 5 5 4 4 3 3 3 2 1 2 2 3 4 4 5 5 5 5 4 4 4 4 4 4 4 4 4 3 3 3 3 3 2 2 2 2 2 2 2
5 5 5 5 5 5 4 4 3 3 2 2 3 3 3 3 3 4 5 4 4 4 3 4 4 3 4 4 3 3 3 3 3 3 2 2 2 2 1 2 2 2 2
6 6 5 5 5 5 4 4 3 3 3 3 3 4 4 4 4 3 4 4 3 3 3 3 3 3 3 3 2 3 3 3 3 2 2 2 2 2 2 2 2 1 2
5 6 5 5 5 5 4 4 4 4 4 3 3 4 4 4 4 4 4 4 4 3 3 3 3 3 2 2 2 2 2 2 2 2 2 2 2 2 2 2 2 2 1
3 5 6 5 5 5 4 4 4 4 4 3 3 4 4 4 4 4 3 3 2 2 2 2 2 2 2 2 2 2 2 2 2 2 2 2 2 2 2 2 2 1 1
3 5 6 5 5 4 4 4 3 4 3 4 4 4 4 4 3 3 2 2 2 2 2 2 1 1 1 1 2 2 2 2 2 2 2 2 2 2 2 2 2 1 1
4 5 5 5 5 4 3 3 3 3 3 4 4 3 3 3 3 2 2 2 2 2 2 2 1 1 1 1 2 2 2 2 2 1 2 2 2 2 1 1 1 0 1
3 4 5 5 5 4 3 2 2 3 3 3 3 3 3 3 3 2 2 1 2 1 1 1 1 1 1 1 1 2 2 2 1 1 1 1 1 1 1 1 0 -0 -0
3 4 5 5 4 3 3 2 2 2 2 3 3 3 3 2 2 2 1 1 1 1 1 1 1 1 1 1 1 1 1 1 1 1 1 1 1 1 0 -0 -0 -0 -1
4 5 5 5 4 4 3 2 2 2 2 2 3 3 2 2 1 1 1 1 1 1 1 1 1 1 1 1 1 1 1 1 1 1 1 0 0 0 -0 -0 -1 -1 -1
4 5 5 5 5 4 3 2 2 2 2 2 2 2 2 1 1 1 1 1 1 1 1 1 1 1 1 1 1 1 1 1 0 0 0 -0 -0 -1 -1 -1 -1 -1 -2
4 4 5 5 5 4 3 3 2 2 2 2 2 2 1 1 0 1 1 1 0 0 0 0 1 1 1 1 1 1 0 0 0 0 -0 -1 -1 -1 -1 -1 -2 -2 -2
4 4 5 5 4 4 4 3 2 2 2 2 2 1 1 1 1 1 0 0 0 0 0 0 1 1 1 1 1 0 0 0 0 -0 -0 -1 -1 -1 -2 -2 -2 -2 -2
5 5 5 5 5 5 4 4 3 2 2 2 1 1 1 1 1 0 0 0 0 0 0 0 0 0 1 1 0 0 0 0 -0 -1 -1 -1 -1 -1 -2 -2 -2 -2 -3
5 5 5 5 5 5 4 4 3 2 1 1 1 1 1 1 1 0 0 -0 -0 -0 0 0 0 0 0 0 0 0 0 -0 -1 -1 -1 -2 -2 -2 -2 -3 -3 -3 -3
5 5 5 5 5 5 4 3 2 1 1 1 1 1 1 1 0 0 0 -0 -0 -0 -0 0 0 0 0 0 0 -0 -0 -1 -1 -1 -2 -2 -2 -3 -3 -3 -3 -4 -4
5 5 5 5 5 5 4 3 2 1 1 1 1 1 1 1 1 0 0 -0 -0 -0 -0 0 0 0 -0 -0 -0 -1 -1 -1 -1 -1 -2 -2 -2 -3 -3 -3 -3 -4 -4
5 5 4 4 4 4 4 3 2 1 1 1 1 1 1 1 1 0 0 -0 -0 -0 -0 -0 -0 -0 -0 -0 -1 -1 -1 -1 -2 -2 -2 -3 -3 -3 -3 -4 -4 -4 -4
4 4 4 4 4 4 4 3 2 1 1 1 1 1 1 1 1 0 0 0 -0 -0 -0 -0 -0 -1 -1 -1 -1 -1 -2 -2 -2 -2 -2 -3 -3 -3 -4 -4 -4 -4 -4
4 4 3 4 4 4 4 4 2 1 1 1 1 1 1 1 1 1 1 0 0 -0 -1 -1 -1 -1 -1 -1 -2 -2 -2 -2 -2 -3 -3 -3 -4 -4 -4 -5 -5 -5 -5
3 3 3 3 3 3 3 3 2 1 1 1 1 1 1 1 1 1 1 0 0 -0 -1 -1 -1 -1 -1 -2 -2 -2 -2 -2 -3 -3 -3 -4 -4 -4 -5 -4 -5 -5 -5
3 3 3 3 3 2 3 3 2 2 1 1 1 1 1 1 1 1 1 0 0 -0 -1 -1 -1 -2 -2 -2 -2 -2 -3 -3 -3 -3 -3 -4 -4 -5 -5 -5 -5 -5 -5
3 3 3 2 2 2 3 2 2 2 1 1 1 1 1 1 1 1 1 0 -0 -1 -1 -1 -2 -2 -2 -2 -2 -3 -3 -3 -3 -3 -4 -4 -4 -5 -5 -5 -6 -6 -6
3 3 3 2 2 2 2 2 2 2 1 1 1 1 1 1 1 1 1 0 -0 -1 -1 -2 -2 -2 -2 -2 -3 -3 -3 -3 -3 -4 -4 -5 -5 -5 -5 -6 -6 -6 -6

GFSMW_700_temp_315.txt.gz
Temp
7 6 6 6 6 5 5 5 4 4 4 4 5 4 4 4 4 5 6 6 6 6 6 7 7 7 6 6 6 6 5 6 5 4 3 4 3 3 3 3 2 2 3
7 6 6 6 6 5 5 5 4 4 3 3 4 3 2 3 4 5 5 4 5 5 5 6 6 6 5 5 5 5 4 5 4 4 4 4 3 3 3 3 3 3 2
7 7 6 6 6 6 6 5 4 4 4 4 4 3 3 3 3 3 4 4 3 4 5 5 5 5 5 5 5 5 4 4 4 3 3 3 3 3 3 2 3 3 2
8 7 7 6 6 6 6 5 5 5 4 4 5 4 3 3 3 3 2 3 3 4 4 4 5 5 5 5 5 4 4 3 3 3 3 2 2 2 2 2 2 2 2
8 8 7 6 6 6 5 5 5 5 5 4 5 4 4 3 3 3 3 3 4 4 3 4 4 4 4 4 4 3 3 3 3 3 3 3 2 2 2 2 1 1 1
8 7 7 6 6 5 5 5 6 5 5 5 5 4 4 3 4 4 4 3 4 4 4 3 4 3 3 3 3 3 3 3 3 3 3 2 2 2 2 2 2 2 1
7 6 6 6 6 6 6 5 5 5 5 5 5 4 4 4 4 4 4 4 4 4 3 3 3 3 3 2 2 3 3 3 2 2 2 2 2 2 2 2 2 2 1
5 5 5 6 6 6 6 6 5 5 5 5 4 4 4 4 4 4 4 4 4 4 3 3 3 2 2 2 2 2 2 2 2 2 2 2 2 2 2 2 2 1 0
6 6 5 6 6 6 6 5 5 5 5 5 4 4 4 4 3 3 4 4 4 3 3 2 2 2 2 2 2 2 2 2 2 2 2 2 2 2 2 2 2 1 1
5 5 5 5 5 6 6 5 4 4 4 4 3 3 3 3 3 4 3 4 3 3 2 2 2 2 2 1 1 2 2 2 2 2 2 2 2 1 1 1 1 0 0
6 5 5 5 5 5 5 5 4 4 4 4 3 3 3 3 3 3 3 3 3 2 2 2 2 2 1 1 1 1 2 2 2 2 2 2 1 1 1 1 0 0 -0
6 5 5 5 5 5 5 4 4 5 4 3 3 2 3 3 3 3 3 3 2 2 2 2 2 1 1 1 1 1 1 2 2 1 1 1 1 1 0 0 -0 -0 -1
6 5 5 5 5 5 5 4 4 5 4 3 3 3 3 3 3 3 2 2 2 1 1 1 1 1 1 1 1 1 1 1 1 1 1 1 1 1 0 -0 -1 -1 -1
6 6 5 5 5 5 5 5 5 5 4 3 3 3 3 3 3 2 2 1 1 1 1 1 1 1 1 1 1 1 1 1 1 1 1 1 0 0 -0 -1 -1 -1 -1
6 6 6 5 5 5 5 5 4 5 4 3 3 2 2 2 2 2 2 1 1 1 1 1 1 1 1 0 0 1 1 1 1 1 0 0 0 -0 -1 -1 -1 -1 -1
6 6 6 5 5 5 5 5 4 5 4 3 3 2 2 2 2 2 1 1 1 1 1 1 0 0 0 0 0 0 0 1 0 0 1 0 -0 -1 -1 -1 -1 -1 -2
6 6 5 5 5 5 5 5 4 4 4 4 3 2 2 2 2 1 1 1 1 1 1 0 0 0 0 0 0 0 0 0 0 0 0 -0 -0 -0 -1 -1 -2 -2 -2
6 6 5 5 5 5 5 4 4 4 4 4 3 2 2 2 2 1 1 1 1 1 0 -0 -0 -0 0 -0 -0 -0 -0 -0 -0 -0 -0 -0 -1 -1 -2 -2 -2 -2 -3
6 6 6 6 5 5 5 5 5 4 4 4 3 2 1 1 1 1 1 1 1 1 0 0 0 -0 -0 -0 -0 -0 -0 -0 -0 -1 -1 -1 -1 -2 -2 -2 -3 -3 -3
6 6 6 6 5 5 5 5 5 5 5 4 3 2 1 1 1 1 1 1 1 0 0 0 -0 -0 -0 -0 -1 -1 -1 -1 -1 -1 -1 -1 -2 -2 -2 -3 -3 -3 -4
5 5 5 6 5 5 5 5 5 5 4 3 2 1 1 1 1 1 1 1 0 0 0 0 -0 -0 -1 -1 -1 -1 -1 -1 -1 -1 -2 -2 -2 -2 -3 -3 -3 -4 -4
5 5 5 5 5 5 5 5 5 4 4 3 2 1 1 0 1 1 1 0 0 0 0 -0 -0 -1 -1 -1 -1 -1 -1 -1 -1 -2 -2 -2 -2 -3 -3 -3 -4 -4 -4
5 5 5 5 5 5 4 4 4 4 3 3 2 1 0 0 0 1 1 0 0 0 0 0 -0 -1 -1 -1 -1 -1 -1 -1 -2 -2 -2 -3 -3 -3 -3 -4 -4 -4 -4
2 4 4 4 4 4 4 4 3 3 3 2 2 1 0 -0 0 0 0 0 1 1 0 0 -0 -1 -1 -1 -1 -1 -2 -2 -2 -2 -3 -3 -3 -3 -4 -4 -4 -4 -5
4 4 4 4 4 4 4 3 3 3 3 2 2 1 0 -0 0 1 1 1 0 0 0 -0 -1 -1 -1 -2 -1 -1 -2 -2 -2 -3 -3 -3 -3 -4 -4 -4 -4 -5 -5
1 3 4 4 4 3 3 3 2 2 2 2 2 1 1 0 0 1 1 1 0 0 0 -0 -0 -1 -1 -1 -2 -2 -2 -2 -3 -3 -3 -4 -4 -4 -4 -4 -5 -5 -5